Station Historical Data
Daily Summary for April 26, 2017 Units:  English    Metric   Both
Next Day »
Daily Weekly Monthly Yearly Custom
  High: Low: Average:
Temperature: 51.9 °F 49.1 °F 50.7 °F
Dew Point: 49.1 °F 43.1 °F 47.1 °F
Humidity: 92% 77% 87%
Wind Speed: 18.0mph 0.0mph 3.7mph
Wind Gust: 19.0mph - -
Wind- - SSE
Pressure: 30.11 in 30.01 in -
Precipitation: 0.10 in    
Historical Graphs
 
 
Tabular Data for April 26, 2017
Time Temperature Dew Point Pressure Wind Wind Speed Wind Gust Humidity Rainfall Rate (Hourly) solar Conditions
00:04 50.0 °F 43.1 °F 30.11 in Calm     77% 0.00 in 0.00 W/m2
00:09 50.0 °F 43.1 °F 30.11 in Calm     77% 0.00 in 0.00 W/m2
00:14 50.0 °F 43.1 °F 30.10 in Calm     77% 0.00 in 0.00 W/m2
00:19 50.0 °F 43.4 °F 30.09 in Calm     78% 0.00 in 0.00 W/m2
00:24 50.1 °F 43.5 °F 30.10 in Calm     78% 0.00 in 0.00 W/m2
00:29 50.1 °F 43.5 °F 30.10 in Calm     78% 0.00 in 0.00 W/m2
00:35 50.1 °F 43.5 °F 30.09 in Calm     78% 0.00 in 0.00 W/m2
00:40 50.1 °F 43.8 °F 30.09 in Calm     79% 0.00 in 0.00 W/m2
00:45 50.1 °F 43.8 °F 30.09 in Calm     79% 0.00 in 0.00 W/m2
00:50 50.2 °F 44.0 °F 30.09 in Calm     79% 0.00 in 0.00 W/m2
00:55 50.1 °F 43.8 °F 30.09 in Calm     79% 0.00 in 0.00 W/m2
01:00 50.1 °F 43.8 °F 30.09 in Calm     79% 0.00 in 0.00 W/m2
01:05 50.1 °F 44.2 °F 30.09 in Calm     80% 0.00 in 0.00 W/m2
01:10 50.1 °F 44.2 °F 30.09 in Calm     80% 0.00 in 0.00 W/m2
01:15 50.1 °F 44.2 °F 30.09 in Calm     80% 0.00 in 0.00 W/m2
01:20 50.1 °F 44.2 °F 30.09 in Calm     80% 0.00 in 0.00 W/m2
01:25 50.1 °F 44.5 °F 30.08 in Calm     81% 0.00 in 0.00 W/m2
01:30 50.1 °F 44.5 °F 30.07 in Calm     81% 0.00 in 0.00 W/m2
01:35 50.1 °F 44.5 °F 30.07 in Calm     81% 0.00 in 0.00 W/m2
01:41 50.1 °F 44.5 °F 30.07 in Calm     81% 0.00 in 0.00 W/m2
01:46 50.2 °F 44.6 °F 30.08 in Calm     81% 0.00 in 0.00 W/m2
01:51 50.2 °F 44.9 °F 30.07 in Calm     82% 0.00 in 0.00 W/m2
01:56 50.2 °F 44.9 °F 30.07 in Calm     82% 0.00 in 0.00 W/m2
02:01 50.1 °F 44.5 °F 30.07 in Calm     81% 0.00 in 0.00 W/m2
02:06 50.2 °F 44.6 °F 30.06 in Calm     81% 0.00 in 0.00 W/m2
02:11 50.2 °F 44.6 °F 30.06 in Calm     81% 0.00 in 0.00 W/m2
02:16 50.2 °F 44.6 °F 30.06 in Calm     81% 0.00 in 0.00 W/m2
02:21 50.2 °F 44.9 °F 30.06 in Calm     82% 0.00 in 0.00 W/m2
02:26 50.2 °F 44.9 °F 30.06 in Calm     82% 0.00 in 0.00 W/m2
02:31 50.2 °F 44.9 °F 30.06 in Calm     82% 0.00 in 0.00 W/m2
02:36 50.2 °F 44.9 °F 30.05 in Calm     82% 0.00 in 0.00 W/m2
02:41 50.1 °F 44.8 °F 30.06 in Calm     82% 0.00 in 0.00 W/m2
02:42 50.1 °F 44.8 °F 30.05 in Calm     82% 0.00 in 0.00 W/m2
02:47 50.1 °F 44.8 °F 30.06 in Calm     82% 0.00 in 0.00 W/m2
02:52 50.1 °F 44.8 °F 30.05 in Calm     82% 0.00 in 0.00 W/m2
02:57 50.1 °F 44.8 °F 30.05 in Calm     82% 0.00 in 0.00 W/m2
03:02 50.1 °F 44.8 °F 30.05 in Calm     82% 0.00 in 0.00 W/m2
03:07 50.1 °F 44.8 °F 30.06 in Calm     82% 0.00 in 0.00 W/m2
03:12 50.1 °F 44.8 °F 30.06 in Calm     82% 0.00 in 0.00 W/m2
03:17 50.1 °F 44.8 °F 30.06 in Calm     82% 0.00 in 0.00 W/m2
03:22 50.1 °F 45.2 °F 30.04 in Calm     83% 0.00 in 0.00 W/m2
03:32 50.1 °F 45.2 °F 30.05 in Calm     83% 0.00 in 0.00 W/m2
03:37 50.1 °F 45.2 °F 30.03 in Calm     83% 0.00 in 0.00 W/m2
03:42 50.1 °F 45.2 °F 30.03 in Calm     83% 0.00 in 0.00 W/m2
03:46 50.1 °F 45.2 °F 30.04 in Calm     83% 0.00 in 0.00 W/m2
03:51 50.1 °F 45.2 °F 30.02 in Calm     83% 0.00 in 0.00 W/m2
03:56 50.0 °F 45.0 °F 30.03 in Calm     83% 0.00 in 0.00 W/m2
04:01 50.0 °F 45.0 °F 30.03 in Calm     83% 0.00 in 0.00 W/m2
04:06 50.0 °F 45.0 °F 30.03 in Calm     83% 0.00 in 0.00 W/m2
04:11 49.9 °F 45.0 °F 30.03 in Calm     83% 0.00 in 0.00 W/m2
04:16 49.9 °F 45.0 °F 30.02 in Calm     83% 0.00 in 0.00 W/m2
04:21 49.9 °F 45.0 °F 30.03 in Calm     83% 0.00 in 0.00 W/m2
04:26 49.9 °F 45.0 °F 30.03 in Calm     83% 0.00 in 0.00 W/m2
04:31 49.8 °F 44.8 °F 30.03 in Calm     83% 0.00 in 0.00 W/m2
04:33 49.8 °F 44.8 °F 30.03 in Calm     83% 0.00 in 0.00 W/m2
04:38 49.8 °F 44.8 °F 30.03 in Calm     83% 0.00 in 0.00 W/m2
04:43 49.8 °F 44.8 °F 30.03 in Calm     83% 0.00 in 0.00 W/m2
04:48 49.8 °F 44.8 °F 30.04 in Calm     83% 0.00 in 0.00 W/m2
04:53 49.7 °F 45.1 °F 30.04 in Calm     84% 0.00 in 0.00 W/m2
04:58 49.7 °F 45.1 °F 30.04 in Calm     84% 0.00 in 0.00 W/m2
05:03 49.7 °F 45.1 °F 30.05 in Calm     84% 0.00 in 0.00 W/m2
05:08 49.7 °F 45.1 °F 30.06 in Calm     84% 0.00 in 0.00 W/m2
05:13 49.7 °F 45.4 °F 30.05 in Calm     85% 0.00 in 0.00 W/m2
05:18 49.7 °F 45.4 °F 30.04 in Calm     85% 0.00 in 0.00 W/m2
05:23 49.7 °F 45.4 °F 30.04 in Calm     85% 0.00 in 0.00 W/m2
05:28 49.6 °F 45.6 °F 30.05 in Calm     86% 0.00 in 0.00 W/m2
05:33 49.6 °F 45.6 °F 30.05 in Calm     86% 0.00 in 0.00 W/m2
05:38 49.5 °F 45.5 °F 30.05 in Calm     86% 0.00 in 0.00 W/m2
05:43 49.4 °F 45.4 °F 30.05 in Calm     86% 0.00 in 0.00 W/m2
05:48 49.3 °F 45.6 °F 30.05 in Calm     87% 0.00 in 0.00 W/m2
05:53 49.3 °F 45.6 °F 30.05 in Calm     87% 0.00 in 0.00 W/m2
05:58 49.2 °F 45.5 °F 30.05 in Calm     87% 0.00 in 0.00 W/m2
06:03 49.2 °F 45.5 °F 30.06 in Calm     87% 0.00 in 0.00 W/m2
06:09 49.2 °F 45.5 °F 30.06 in Calm     87% 0.00 in 0.00 W/m2
06:14 49.2 °F 45.5 °F 30.05 in Calm     87% 0.00 in 0.00 W/m2
06:19 49.1 °F 45.4 °F 30.05 in Calm     87% 0.00 in 0.00 W/m2
06:24 49.1 °F 45.4 °F 30.05 in Calm     87% 0.00 in 5.00 W/m2
06:29 49.2 °F 45.5 °F 30.05 in SE 5.0 mph 5.0 mph 87% 0.00 in 7.00 W/m2
06:34 49.2 °F 45.2 °F 30.06 in SE 1.0 mph 4.0 mph 86% 0.00 in 7.00 W/m2
06:39 49.1 °F 45.1 °F 30.06 in Calm   5.0 mph 86% 0.00 in 11.00 W/m2
06:44 49.2 °F 45.2 °F 30.05 in SE 1.0 mph 5.0 mph 86% 0.00 in 21.00 W/m2
06:49 49.2 °F 45.2 °F 30.05 in Calm   8.0 mph 86% 0.00 in 19.00 W/m2
06:50 49.2 °F 45.2 °F 30.05 in Calm   8.0 mph 86% 0.00 in 26.00 W/m2
06:55 49.3 °F 45.3 °F 30.05 in SE 6.0 mph 7.0 mph 86% 0.00 in 32.00 W/m2
07:00 49.4 °F 45.4 °F 30.05 in SE 2.0 mph 6.0 mph 86% 0.00 in 28.00 W/m2
07:05 49.4 °F 45.4 °F 30.05 in SE 1.0 mph 6.0 mph 86% 0.00 in 30.00 W/m2
07:10 49.5 °F 45.5 °F 30.05 in ESE 1.0 mph 7.0 mph 86% 0.00 in 28.00 W/m2
07:15 49.5 °F 45.5 °F 30.06 in ESE 2.0 mph 6.0 mph 86% 0.00 in 19.00 W/m2
07:20 49.5 °F 45.5 °F 30.07 in ESE 2.0 mph 4.0 mph 86% 0.00 in 23.00 W/m2
07:25 49.5 °F 45.5 °F 30.07 in Calm   1.0 mph 86% 0.00 in 33.00 W/m2
07:30 49.5 °F 45.5 °F 30.07 in Calm     86% 0.00 in 49.00 W/m2
07:35 49.6 °F 45.6 °F 30.07 in Calm   5.0 mph 86% 0.00 in 65.00 W/m2
07:40 49.7 °F 45.7 °F 30.07 in Calm   4.0 mph 86% 0.00 in 81.00 W/m2
07:45 49.8 °F 46.1 °F 30.07 in Calm   6.0 mph 87% 0.00 in 72.00 W/m2
07:50 49.9 °F 46.2 °F 30.07 in SE 4.0 mph 5.0 mph 87% 0.00 in 63.00 W/m2
07:55 49.9 °F 46.2 °F 30.07 in Calm   6.0 mph 87% 0.00 in 81.00 W/m2
08:00 49.9 °F 46.2 °F 30.06 in SE 2.0 mph 8.0 mph 87% 0.00 in 93.00 W/m2
08:05 50.0 °F 46.3 °F 30.06 in SE 2.0 mph 8.0 mph 87% 0.00 in 100.00 W/m2
08:10 50.0 °F 46.3 °F 30.06 in SSE 1.0 mph 10.0 mph 87% 0.00 in 88.00 W/m2
08:15 50.0 °F 46.3 °F 30.06 in Calm   10.0 mph 87% 0.00 in 69.00 W/m2
08:20 50.1 °F 46.4 °F 30.06 in SE 7.0 mph 9.0 mph 87% 0.00 in 86.00 W/m2
08:25 50.1 °F 46.4 °F 30.06 in SSE 7.0 mph 10.0 mph 87% 0.00 in 118.00 W/m2
08:31 50.1 °F 46.4 °F 30.06 in SSE 5.0 mph 12.0 mph 87% 0.00 in 88.00 W/m2
08:36 50.1 °F 46.4 °F 30.06 in Calm   12.0 mph 87% 0.00 in 114.00 W/m2
08:41 50.0 °F 46.3 °F 30.06 in SSE 1.0 mph 15.0 mph 87% 0.00 in 125.00 W/m2
08:46 50.0 °F 46.3 °F 30.06 in SE 6.0 mph 9.0 mph 87% 0.00 in 125.00 W/m2
08:49 49.9 °F 46.2 °F 30.05 in SE 8.0 mph 10.0 mph 87% 0.00 in 132.00 W/m2
08:54 49.9 °F 46.2 °F 30.05 in SE 4.0 mph 8.0 mph 87% 0.00 in 128.00 W/m2
08:59 49.8 °F 46.4 °F 30.05 in SSE 2.0 mph 13.0 mph 88% 0.00 in 146.00 W/m2
09:04 49.8 °F 46.4 °F 30.05 in SE 7.0 mph 7.0 mph 88% 0.00 in 153.00 W/m2
09:09 49.8 °F 46.4 °F 30.05 in SE 1.0 mph 5.0 mph 88% 0.00 in 156.00 W/m2
09:14 49.8 °F 46.4 °F 30.05 in SE 1.0 mph 7.0 mph 88% 0.00 in 107.00 W/m2
09:19 49.8 °F 46.4 °F 30.05 in Calm   6.0 mph 88% 0.00 in 111.00 W/m2
09:24 49.8 °F 46.7 °F 30.05 in SE 8.0 mph 8.0 mph 89% 0.00 in 107.00 W/m2
09:25 49.8 °F 46.7 °F 30.05 in SE 6.0 mph 8.0 mph 89% 0.00 in 121.00 W/m2
09:30 49.8 °F 46.7 °F 30.06 in SE 6.0 mph 8.0 mph 89% 0.00 in 130.00 W/m2
09:35 49.8 °F 46.7 °F 30.06 in Calm   5.0 mph 89% 0.00 in 146.00 W/m2
09:40 49.9 °F 46.8 °F 30.05 in Calm   8.0 mph 89% 0.00 in 190.00 W/m2
09:45 50.0 °F 46.9 °F 30.05 in Calm   12.0 mph 89% 0.00 in 237.00 W/m2
09:50 50.0 °F 46.9 °F 30.05 in SSE 6.0 mph 14.0 mph 89% 0.00 in 236.00 W/m2
09:55 50.1 °F 47.0 °F 30.05 in SSE 9.0 mph 10.0 mph 89% 0.00 in 181.00 W/m2
10:00 50.1 °F 47.0 °F 30.05 in South 1.0 mph 14.0 mph 89% 0.00 in 292.00 W/m2
10:06 50.2 °F 47.1 °F 30.05 in SSE 5.0 mph 11.0 mph 89% 0.00 in 172.00 W/m2
10:11 50.3 °F 47.2 °F 30.05 in South 8.0 mph 14.0 mph 89% 0.00 in 163.00 W/m2
10:16 50.3 °F 47.2 °F 30.05 in SSE 1.0 mph 15.0 mph 89% 0.00 in 195.00 W/m2
10:21 50.3 °F 47.2 °F 30.05 in SSE 2.0 mph 11.0 mph 89% 0.00 in 197.00 W/m2
10:26 50.3 °F 47.2 °F 30.05 in SSE 12.0 mph 13.0 mph 89% 0.00 in 193.00 W/m2
10:31 50.3 °F 47.2 °F 30.05 in South 13.0 mph 15.0 mph 89% 0.00 in 199.00 W/m2
10:36 50.3 °F 47.2 °F 30.05 in SSE 13.0 mph 15.0 mph 89% 0.00 in 148.00 W/m2
10:41 50.3 °F 47.2 °F 30.05 in South 8.0 mph 9.0 mph 89% 0.00 in 146.00 W/m2
10:46 50.3 °F 47.2 °F 30.05 in Calm     89% 0.00 in 111.00 W/m2
10:51 50.2 °F 47.1 °F 30.05 in SSE 1.0 mph 5.0 mph 89% 0.00 in 111.00 W/m2
10:56 50.2 °F 47.1 °F 30.06 in SSE 7.0 mph 10.0 mph 89% 0.00 in 109.00 W/m2
11:01 50.2 °F 47.1 °F 30.06 in Calm     89% 0.00 in 109.00 W/m2
11:06 50.2 °F 47.1 °F 30.06 in South 10.0 mph 10.0 mph 89% 0.00 in 127.00 W/m2
11:11 50.2 °F 47.1 °F 30.07 in SSE 6.0 mph 8.0 mph 89% 0.00 in 90.00 W/m2
11:16 50.3 °F 47.2 °F 30.07 in South 7.0 mph 7.0 mph 89% 0.00 in 123.00 W/m2
11:21 50.3 °F 47.2 °F 30.08 in SSW 5.0 mph 10.0 mph 89% 0.04 in 95.00 W/m2
11:26 50.3 °F 46.9 °F 30.07 in Calm   1.0 mph 88% 0.04 in 88.00 W/m2
11:31 50.3 °F 46.9 °F 30.06 in SSW 4.0 mph 15.0 mph 88% 0.04 in 118.00 W/m2
11:36 50.3 °F 46.9 °F 30.06 in South 8.0 mph 12.0 mph 88% 0.00 in 155.00 W/m2
11:41 50.3 °F 46.9 °F 30.06 in SSE 9.0 mph 11.0 mph 88% 0.00 in 183.00 W/m2
11:46 50.3 °F 46.9 °F 30.06 in SSE 17.0 mph 17.0 mph 88% 0.00 in 156.00 W/m2
11:51 50.3 °F 46.9 °F 30.06 in SSE 15.0 mph 16.0 mph 88% 0.00 in 239.00 W/m2
11:56 50.4 °F 48.2 °F 30.06 in South 13.0 mph 13.0 mph 92% 0.00 in 202.00 W/m2
12:01 50.4 °F 47.3 °F 30.06 in South 8.0 mph 8.0 mph 89% 0.00 in 223.00 W/m2
12:06 50.5 °F 47.4 °F 30.06 in South 5.0 mph 10.0 mph 89% 0.00 in 223.00 W/m2
12:11 50.6 °F 47.5 °F 30.06 in SSE 6.0 mph 9.0 mph 89% 0.00 in 139.00 W/m2
12:16 50.7 °F 47.6 °F 30.05 in South 8.0 mph 9.0 mph 89% 0.00 in 163.00 W/m2
12:21 50.8 °F 47.4 °F 30.04 in South 6.0 mph 12.0 mph 88% 0.00 in 158.00 W/m2
12:26 50.9 °F 47.5 °F 30.04 in SSE 6.0 mph 11.0 mph 88% 0.00 in 202.00 W/m2
12:31 50.9 °F 47.5 °F 30.03 in SSE 8.0 mph 17.0 mph 88% 0.00 in 251.00 W/m2
12:36 51.1 °F 48.0 °F 30.04 in SSE 18.0 mph 18.0 mph 89% 0.00 in 214.00 W/m2
12:41 51.2 °F 48.1 °F 30.04 in South 7.0 mph 15.0 mph 89% 0.00 in 202.00 W/m2
12:46 51.2 °F 48.1 °F 30.04 in SSE 7.0 mph 11.0 mph 89% 0.00 in 172.00 W/m2
12:51 51.2 °F 48.1 °F 30.04 in South 11.0 mph 15.0 mph 89% 0.00 in 141.00 W/m2
12:56 51.2 °F 48.1 °F 30.04 in SSW 7.0 mph 14.0 mph 89% 0.00 in 125.00 W/m2
13:01 51.2 °F 48.1 °F 30.05 in South 11.0 mph 13.0 mph 89% 0.00 in 162.00 W/m2
13:06 51.2 °F 48.1 °F 30.04 in South 10.0 mph 14.0 mph 89% 0.00 in 156.00 W/m2
13:11 51.2 °F 48.1 °F 30.05 in SSE 7.0 mph 9.0 mph 89% 0.00 in 218.00 W/m2
13:16 51.2 °F 48.1 °F 30.05 in SSW 12.0 mph 12.0 mph 89% 0.00 in 204.00 W/m2
13:22 51.3 °F 48.2 °F 30.05 in South 3.0 mph 14.0 mph 89% 0.00 in 223.00 W/m2
13:27 51.4 °F 48.3 °F 30.04 in South 4.0 mph 10.0 mph 89% 0.00 in 239.00 W/m2
13:32 51.5 °F 48.4 °F 30.05 in South 12.0 mph 18.0 mph 89% 0.00 in 223.00 W/m2
13:37 51.6 °F 48.5 °F 30.05 in Calm   13.0 mph 89% 0.00 in 209.00 W/m2
13:42 51.7 °F 48.6 °F 30.04 in SSE 7.0 mph 9.0 mph 89% 0.00 in 176.00 W/m2
13:47 51.8 °F 48.7 °F 30.05 in SSE 13.0 mph 13.0 mph 89% 0.00 in 181.00 W/m2
13:52 51.7 °F 48.6 °F 30.05 in South 11.0 mph 12.0 mph 89% 0.00 in 178.00 W/m2
13:57 51.7 °F 48.6 °F 30.04 in Calm   9.0 mph 89% 0.00 in 149.00 W/m2
14:02 51.8 °F 48.7 °F 30.04 in SSW 6.0 mph 12.0 mph 89% 0.00 in 134.00 W/m2
14:07 51.7 °F 48.6 °F 30.04 in Calm   10.0 mph 89% 0.00 in 207.00 W/m2
14:12 51.7 °F 48.6 °F 30.05 in SSW 8.0 mph 9.0 mph 89% 0.00 in 127.00 W/m2
14:22 51.7 °F 48.6 °F 30.04 in Calm   13.0 mph 89% 0.00 in 174.00 W/m2
14:27 51.7 °F 48.6 °F 30.05 in South 6.0 mph 10.0 mph 89% 0.00 in 148.00 W/m2
14:32 51.8 °F 48.7 °F 30.05 in South 9.0 mph 13.0 mph 89% 0.00 in 135.00 W/m2
14:37 51.8 °F 48.7 °F 30.05 in SSW 9.0 mph 12.0 mph 89% 0.00 in 207.00 W/m2
14:42 51.8 °F 48.7 °F 30.06 in Calm   9.0 mph 89% 0.00 in 160.00 W/m2
14:47 51.9 °F 48.8 °F 30.06 in SSW 6.0 mph 15.0 mph 89% 0.00 in 104.00 W/m2
14:52 51.8 °F 48.7 °F 30.05 in South 6.0 mph 10.0 mph 89% 0.00 in 116.00 W/m2
14:57 51.8 °F 48.7 °F 30.05 in South 9.0 mph 19.0 mph 89% 0.00 in 171.00 W/m2
15:02 51.9 °F 48.8 °F 30.05 in SSW 8.0 mph 15.0 mph 89% 0.00 in 100.00 W/m2
15:07 51.8 °F 48.7 °F 30.05 in South 4.0 mph 12.0 mph 89% 0.00 in 76.00 W/m2
15:12 51.7 °F 48.6 °F 30.04 in SSE 10.0 mph 10.0 mph 89% 0.00 in 79.00 W/m2
15:17 51.7 °F 48.6 °F 30.04 in South 6.0 mph 10.0 mph 89% 0.00 in 81.00 W/m2
15:22 51.7 °F 48.6 °F 30.04 in SSW 3.0 mph 11.0 mph 89% 0.00 in 74.00 W/m2
15:27 51.6 °F 48.5 °F 30.04 in SSW 1.0 mph 7.0 mph 89% 0.00 in 74.00 W/m2
15:32 51.6 °F 48.5 °F 30.04 in SSE 4.0 mph 10.0 mph 89% 0.00 in 72.00 W/m2
15:37 51.5 °F 48.4 °F 30.04 in SSW 5.0 mph 12.0 mph 89% 0.00 in 62.00 W/m2
15:42 51.5 °F 48.4 °F 30.03 in SSW 6.0 mph 8.0 mph 89% 0.00 in 32.00 W/m2
15:47 51.5 °F 48.4 °F 30.03 in SSW 8.0 mph 9.0 mph 89% 0.00 in 46.00 W/m2
15:52 51.4 °F 48.3 °F 30.03 in South 5.0 mph 11.0 mph 89% 0.00 in 58.00 W/m2
15:57 51.5 °F 48.4 °F 30.04 in SSW 7.0 mph 12.0 mph 89% 0.00 in 44.00 W/m2
16:02 51.4 °F 48.3 °F 30.04 in SSE 5.0 mph 13.0 mph 89% 0.00 in 58.00 W/m2
16:07 51.4 °F 48.3 °F 30.04 in SE 10.0 mph 10.0 mph 89% 0.00 in 51.00 W/m2
16:12 51.4 °F 48.3 °F 30.04 in South 10.0 mph 10.0 mph 89% 0.00 in 46.00 W/m2
16:17 51.4 °F 48.3 °F 30.03 in SSE 9.0 mph 11.0 mph 89% 0.00 in 47.00 W/m2
16:22 51.4 °F 48.3 °F 30.03 in SSE 10.0 mph 13.0 mph 89% 0.00 in 33.00 W/m2
16:27 51.4 °F 48.3 °F 30.03 in South 7.0 mph 10.0 mph 89% 0.00 in 30.00 W/m2
16:32 51.4 °F 48.3 °F 30.03 in SSE 6.0 mph 10.0 mph 89% 0.00 in 28.00 W/m2
16:37 51.4 °F 48.3 °F 30.03 in South 5.0 mph 12.0 mph 89% 0.00 in 35.00 W/m2
16:42 51.4 °F 48.3 °F 30.03 in Calm   10.0 mph 89% 0.00 in 33.00 W/m2
16:52 51.4 °F 48.3 °F 30.03 in South 8.0 mph 10.0 mph 89% 0.00 in 28.00 W/m2
16:57 51.4 °F 48.3 °F 30.03 in Calm     89% 0.00 in 28.00 W/m2
17:03 51.4 °F 48.3 °F 30.04 in Calm   9.0 mph 89% 0.00 in 28.00 W/m2
17:08 51.4 °F 48.3 °F 30.03 in SSE 7.0 mph 10.0 mph 89% 0.00 in 32.00 W/m2
17:13 51.4 °F 48.3 °F 30.02 in South 6.0 mph 10.0 mph 89% 0.00 in 21.00 W/m2
17:18 51.4 °F 48.3 °F 30.03 in South 4.0 mph 8.0 mph 89% 0.00 in 26.00 W/m2
17:23 51.4 °F 48.3 °F 30.03 in South 7.0 mph 10.0 mph 89% 0.00 in 26.00 W/m2
17:28 51.5 °F 48.4 °F 30.03 in SSE 4.0 mph 10.0 mph 89% 0.00 in 19.00 W/m2
17:33 51.5 °F 48.4 °F 30.03 in South 6.0 mph 9.0 mph 89% 0.00 in 35.00 W/m2
17:38 51.5 °F 48.4 °F 30.02 in South 4.0 mph 12.0 mph 89% 0.00 in 40.00 W/m2
17:43 51.5 °F 48.4 °F 30.02 in South 9.0 mph 10.0 mph 89% 0.00 in 23.00 W/m2
17:48 51.5 °F 48.4 °F 30.02 in SSE 4.0 mph 11.0 mph 89% 0.00 in 21.00 W/m2
17:53 51.6 °F 48.5 °F 30.02 in South 7.0 mph 15.0 mph 89% 0.00 in 23.00 W/m2
17:58 51.6 °F 48.5 °F 30.02 in SSE 8.0 mph 10.0 mph 89% 0.00 in 21.00 W/m2
18:03 51.5 °F 48.4 °F 30.02 in SSE 9.0 mph 10.0 mph 89% 0.00 in 25.00 W/m2
18:08 51.6 °F 48.5 °F 30.02 in SSE 5.0 mph 10.0 mph 89% 0.00 in 25.00 W/m2
18:13 51.6 °F 48.5 °F 30.02 in Calm   10.0 mph 89% 0.00 in 35.00 W/m2
18:18 51.6 °F 48.5 °F 30.02 in SSE 8.0 mph 9.0 mph 89% 0.00 in 16.00 W/m2
18:23 51.6 °F 48.5 °F 30.02 in SSE 6.0 mph 12.0 mph 89% 0.00 in 16.00 W/m2
18:28 51.7 °F 48.6 °F 30.02 in Calm     89% 0.00 in 26.00 W/m2
18:33 51.7 °F 48.6 °F 30.01 in South 7.0 mph 11.0 mph 89% 0.00 in 23.00 W/m2
18:38 51.7 °F 48.9 °F 30.03 in SSE 4.0 mph 8.0 mph 90% 0.00 in 18.00 W/m2
18:43 51.7 °F 48.9 °F 30.02 in South 10.0 mph 11.0 mph 90% 0.00 in 21.00 W/m2
18:48 51.7 °F 48.9 °F 30.02 in South 7.0 mph 12.0 mph 90% 0.00 in 14.00 W/m2
18:53 51.7 °F 48.9 °F 30.02 in SSE 5.0 mph 11.0 mph 90% 0.00 in 9.00 W/m2
18:58 51.8 °F 48.7 °F 30.02 in SSE 8.0 mph 11.0 mph 89% 0.00 in 14.00 W/m2
19:03 51.8 °F 48.7 °F 30.03 in South 5.0 mph 10.0 mph 89% 0.00 in 14.00 W/m2
19:08 51.8 °F 48.7 °F 30.03 in SSW 3.0 mph 10.0 mph 89% 0.00 in 12.00 W/m2
19:13 51.8 °F 48.7 °F 30.03 in South 9.0 mph 9.0 mph 89% 0.00 in 5.00 W/m2
19:18 51.8 °F 49.0 °F 30.03 in South 8.0 mph 8.0 mph 90% 0.00 in 5.00 W/m2
19:23 51.8 °F 49.0 °F 30.03 in South 7.0 mph 9.0 mph 90% 0.00 in 12.00 W/m2
19:28 51.8 °F 49.0 °F 30.02 in Calm   9.0 mph 90% 0.00 in 5.00 W/m2
19:33 51.8 °F 49.0 °F 30.02 in Calm   9.0 mph 90% 0.00 in 5.00 W/m2
19:38 51.8 °F 49.0 °F 30.02 in Calm   9.0 mph 90% 0.00 in 5.00 W/m2
19:43 51.8 °F 49.0 °F 30.01 in SSE 6.0 mph 6.0 mph 90% 0.00 in 0.00 W/m2
19:48 51.8 °F 49.0 °F 30.01 in SSE 2.0 mph 13.0 mph 90% 0.00 in 0.00 W/m2
19:53 51.8 °F 49.0 °F 30.02 in SSE 5.0 mph 10.0 mph 90% 0.00 in 0.00 W/m2
19:58 51.8 °F 49.0 °F 30.01 in Calm   10.0 mph 90% 0.00 in 0.00 W/m2
20:03 51.8 °F 49.0 °F 30.02 in Calm   8.0 mph 90% 0.00 in 0.00 W/m2
20:08 51.8 °F 49.0 °F 30.01 in SSE 8.0 mph 14.0 mph 90% 0.00 in 0.00 W/m2
20:13 51.9 °F 49.1 °F 30.02 in SSE 9.0 mph 9.0 mph 90% 0.00 in 0.00 W/m2
20:18 51.8 °F 49.0 °F 30.02 in SSE 7.0 mph 10.0 mph 90% 0.00 in 0.00 W/m2
20:23 51.8 °F 49.0 °F 30.03 in Calm   12.0 mph 90% 0.00 in 0.00 W/m2
20:28 51.8 °F 49.0 °F 30.03 in SSE 8.0 mph 11.0 mph 90% 0.00 in 0.00 W/m2
20:33 51.8 °F 49.0 °F 30.03 in Calm   8.0 mph 90% 0.00 in 0.00 W/m2
20:38 51.8 °F 49.0 °F 30.04 in SSE 6.0 mph 11.0 mph 90% 0.00 in 0.00 W/m2
20:43 51.8 °F 49.0 °F 30.03 in SSE 9.0 mph 10.0 mph 90% 0.00 in 0.00 W/m2
20:48 51.7 °F 48.9 °F 30.03 in SSE 1.0 mph 11.0 mph 90% 0.00 in 0.00 W/m2
20:54 51.7 °F 48.9 °F 30.03 in SSE 2.0 mph 10.0 mph 90% 0.00 in 0.00 W/m2
20:59 51.8 °F 49.0 °F 30.02 in SSE 2.0 mph 2.0 mph 90% 0.00 in 0.00 W/m2
21:04 51.7 °F 48.9 °F 30.03 in SSE 8.0 mph 10.0 mph 90% 0.00 in 0.00 W/m2
21:09 51.7 °F 48.9 °F 30.03 in Calm     90% 0.00 in 0.00 W/m2
21:14 51.7 °F 48.9 °F 30.03 in SSE 7.0 mph 8.0 mph 90% 0.00 in 0.00 W/m2
21:19 51.7 °F 48.9 °F 30.03 in SSE 9.0 mph 9.0 mph 90% 0.00 in 0.00 W/m2
21:24 51.7 °F 48.9 °F 30.03 in SSE 7.0 mph 7.0 mph 90% 0.00 in 0.00 W/m2
21:29 51.8 °F 49.0 °F 30.02 in SSE 7.0 mph 9.0 mph 90% 0.00 in 0.00 W/m2
21:34 51.8 °F 49.0 °F 30.03 in Calm   8.0 mph 90% 0.00 in 0.00 W/m2
21:39 51.7 °F 48.9 °F 30.03 in SSE 2.0 mph 10.0 mph 90% 0.00 in 0.00 W/m2
21:44 51.7 °F 48.9 °F 30.03 in SSE 6.0 mph 10.0 mph 90% 0.00 in 0.00 W/m2
21:49 51.7 °F 48.9 °F 30.02 in SSE 2.0 mph 9.0 mph 90% 0.00 in 0.00 W/m2
21:50 51.7 °F 48.9 °F 30.03 in SSE 2.0 mph 9.0 mph 90% 0.00 in 0.00 W/m2
21:55 51.7 °F 48.9 °F 30.03 in SE 7.0 mph 11.0 mph 90% 0.00 in 0.00 W/m2
22:00 51.7 °F 48.9 °F 30.03 in SSE 7.0 mph 12.0 mph 90% 0.00 in 0.00 W/m2
22:05 51.7 °F 48.9 °F 30.03 in SE 7.0 mph 14.0 mph 90% 0.00 in 0.00 W/m2
22:10 51.7 °F 48.9 °F 30.03 in SSE 7.0 mph 12.0 mph 90% 0.00 in 0.00 W/m2
22:15 51.7 °F 48.9 °F 30.02 in SSE 8.0 mph 12.0 mph 90% 0.00 in 0.00 W/m2
22:20 51.7 °F 48.9 °F 30.02 in Calm   12.0 mph 90% 0.00 in 0.00 W/m2
22:25 51.7 °F 48.9 °F 30.03 in SSE 9.0 mph 11.0 mph 90% 0.00 in 0.00 W/m2
22:30 51.7 °F 48.9 °F 30.03 in SSE 2.0 mph 9.0 mph 90% 0.00 in 0.00 W/m2
22:35 51.7 °F 48.9 °F 30.03 in Calm   8.0 mph 90% 0.00 in 0.00 W/m2
22:40 51.7 °F 48.9 °F 30.02 in SSE 6.0 mph 9.0 mph 90% 0.00 in 0.00 W/m2
22:45 51.7 °F 48.9 °F 30.02 in SSE 4.0 mph 11.0 mph 90% 0.00 in 0.00 W/m2
22:50 51.7 °F 48.9 °F 30.02 in SSE 1.0 mph 11.0 mph 90% 0.00 in 0.00 W/m2
22:55 51.7 °F 48.9 °F 30.02 in SSE 8.0 mph 10.0 mph 90% 0.00 in 0.00 W/m2
23:00 51.7 °F 48.9 °F 30.02 in Calm   11.0 mph 90% 0.00 in 0.00 W/m2
23:05 51.7 °F 48.9 °F 30.02 in SSE 1.0 mph 11.0 mph 90% 0.00 in 0.00 W/m2
23:10 51.7 °F 48.9 °F 30.02 in SSE 8.0 mph 10.0 mph 90% 0.00 in 0.00 W/m2
23:16 51.7 °F 48.9 °F 30.02 in SSE 9.0 mph 11.0 mph 90% 0.00 in 0.00 W/m2
23:21 51.7 °F 48.9 °F 30.02 in South 7.0 mph 9.0 mph 90% 0.00 in 0.00 W/m2
23:26 51.7 °F 48.9 °F 30.03 in Calm   5.0 mph 90% 0.00 in 0.00 W/m2
23:31 51.7 °F 48.9 °F 30.04 in South 4.0 mph 10.0 mph 90% 0.00 in 0.00 W/m2
23:36 51.7 °F 48.9 °F 30.04 in South 6.0 mph 8.0 mph 90% 0.00 in 0.00 W/m2
23:41 51.6 °F 48.8 °F 30.04 in Calm   9.0 mph 90% 0.00 in 0.00 W/m2
23:46 51.6 °F 48.8 °F 30.03 in South 2.0 mph 10.0 mph 90% 0.00 in 0.00 W/m2
23:51 51.6 °F 48.8 °F 30.03 in Calm   12.0 mph 90% 0.00 in 0.00 W/m2
23:55 51.6 °F 48.8 °F 30.04 in South 5.0 mph 10.0 mph 90% 0.00 in 0.00 W/m2
Foresthill Weather
 WU-history PHP script courtesy of   Juneau County Weather.
powered by Cumulus v1.9.3 (1059)
Ambient Weather VWS v14.00
Top Contact Website Map Copyright © 2007 - 2018 Foresthillweather.com Never base important decisions on this or any weather information obtained from the Internet